OSCAR 25

Last updated on Fri Jun 19 2026 20:04:44 GMT+0000 (Coordinated Universal Time)

1 19419U 88074A 26170.58805495 .00000063 00000+0 91092-4 0 9994 2 19419 90.0403 20.9723 0098013 67.9387 346.2231 13.42658787851743
UTC large
Height (km)
Speed (km/s)
/
Latitude / Longitude
Inclination (degrees)
Orbital Period (minutes)
Azimuth
Elevation
Range (km)
Doppler Factor

Next 0 passes for location: London (51.5072 / 0.1276)

Sorry there are no passes over London.
OSCAR 25